Bishops Head, MD NWLON current weather conditions

sailwx.info

Wind from 306 at 12 knots gusting 14

Air temperature 4.4° C
Water temperature 6.1° C

Last reported at 2014-Nov-27 06:36 UTC.
Time now 2014-Nov-27 08:02 UTC

Location: N 38°13' W 076°02'.
View on Google Maps.

See reports from other nearby stations

  
Tides and Currents Weather Stations Pressure Air Temp Water Temp Dewpoint Dewpoint Depression Visibility Wind Speed Wind Dir Waves Ship Positions
date/time (UTC)wind fromknots sea level pressurealtimeterstation pressurevisibilityair tempwater tempwave heightnotes
2014-Nov-27 06:36 306 12 gusting 14 4.4 6.1
2014-Nov-27 06:30 305 10 gusting 13 4.4 6.1
2014-Nov-27 06:24 317 11 gusting 16 4.4 6.7
2014-Nov-27 06:18 318 13 gusting 16 4.4 6.7
2014-Nov-27 06:12 317 13 gusting 16 4.4 6.7
2014-Nov-27 06:06 309 13 gusting 16 4.4 6.7
2014-Nov-27 06:00 311 12 gusting 15 4.4 6.7
2014-Nov-27 05:54 310 13 gusting 16 4.4 6.7
2014-Nov-27 05:48 313 13 gusting 16 4.4 6.7
2014-Nov-27 05:36 310 11 gusting 13 4.4 6.7
2014-Nov-27 05:30 316 12 gusting 13 4.4 6.7
2014-Nov-27 05:24 309 11 gusting 13 4.4 6.7
2014-Nov-27 05:18 304 13 gusting 15 4.4 6.7
2014-Nov-27 05:12 304 13 gusting 18 4.4 6.7
2014-Nov-27 05:06 305 16 gusting 18 4.4 6.7
2014-Nov-27 05:00 300 16 gusting 21 4.4 6.7
2014-Nov-27 04:54 295 18 gusting 22 4.4 6.7
2014-Nov-27 04:48 299 18 gusting 22 4.4 6.7
2014-Nov-27 04:36 300 16 gusting 19 4.4 6.7
2014-Nov-27 04:30 302 16 gusting 21 4.4 6.7
2014-Nov-27 04:24 299 16 gusting 19 4.4 6.7
2014-Nov-27 04:18 299 16 gusting 17 4.4 6.7
2014-Nov-27 04:12 307 12 gusting 15 4.4 6.7
2014-Nov-27 04:06 308 13 gusting 16 4.4 6.7
2014-Nov-27 04:00 310 12 gusting 18 4.4 6.7
2014-Nov-27 03:54 307 13 gusting 17 4.4 6.7
2014-Nov-27 03:48 307 14 gusting 18 4.4 6.7
2014-Nov-27 03:36 309 14 gusting 19 4.4 6.7
2014-Nov-27 03:30 309 13 gusting 17 4.4 6.7
2014-Nov-27 03:24 309 15 gusting 19 4.4 6.7
2014-Nov-27 03:18 310 13 gusting 15 4.4 7.2
2014-Nov-27 03:12 309 13 gusting 18 4.4 7.2
2014-Nov-27 03:06 309 15 gusting 18 4.4 7.2
2014-Nov-27 03:00 313 15 gusting 18 4.4 7.2
2014-Nov-27 02:54 311 12 gusting 17 4.4 7.2
2014-Nov-27 02:48 314 13 gusting 16 4.4 7.2
2014-Nov-27 02:42 314 12 gusting 16 4.4 7.2
2014-Nov-27 02:36 313 11 gusting 13 4.4 7.2
2014-Nov-27 02:30 323 8 gusting 13 4.4 7.2
2014-Nov-27 02:24 325 10 gusting 14 4.4 7.2
2014-Nov-27 02:18 323 12 gusting 13 4.4 7.2
2014-Nov-27 02:12 326 11 gusting 18 4.4 7.2
2014-Nov-27 02:06 320 13 gusting 17 4.4 7.2
2014-Nov-27 02:00 322 10 gusting 13 4.4 7.2
2014-Nov-27 01:54 318 10 gusting 13 4.4 7.2
2014-Nov-27 01:48 321 10 gusting 14 4.4 7.2
2014-Nov-27 01:36 331 10 gusting 13 3.9 7.2
2014-Nov-27 01:30 328 8 gusting 13 3.9 7.2
2014-Nov-27 01:24 331 10 gusting 15 3.9 7.2
2014-Nov-27 01:12 334 12 gusting 16 3.9 7.2
2014-Nov-27 01:00 331 13 gusting 19 3.9 7.2
2014-Nov-27 00:54 335 12 gusting 14 3.9 7.2
2014-Nov-27 00:48 331 10 gusting 14 3.9 7.2
2014-Nov-27 00:42 342 9 gusting 18 3.9 7.2
2014-Nov-27 00:36 340 12 gusting 13 3.9 7.2
2014-Nov-27 00:24 339 13 gusting 15 3.9 7.2
2014-Nov-27 00:18 342 12 gusting 17 3.9 7.2
2014-Nov-27 00:12 341 13 gusting 18 3.9 7.2
2014-Nov-27 00:06 343 13 gusting 18 3.9 7.2
2014-Nov-26 23:48 334 14 gusting 20 3.9 7.8
2014-Nov-26 23:42 331 17 gusting 22 3.9 7.8
2014-Nov-26 23:36 332 13 gusting 19 3.9 7.8
2014-Nov-26 23:30 7.8
2014-Nov-26 23:24 7.8
2014-Nov-26 23:18 337 14 gusting 19 3.3 7.8
2014-Nov-26 23:12 336 13 gusting 21 3.3 7.8
2014-Nov-26 23:06 333 13 gusting 20 3.3 7.8
2014-Nov-26 23:00 337 16 gusting 22 3.3 7.8
2014-Nov-26 22:54 336 16 gusting 20 3.3 7.8
2014-Nov-26 22:48 337 18 gusting 22 3.3 7.8
2014-Nov-26 22:36 331 16 gusting 19 3.3 7.8
2014-Nov-26 22:30 332 15 gusting 23 3.3 7.8
2014-Nov-26 22:24 328 17 gusting 22 3.3 7.8
2014-Nov-26 22:18 332 17 gusting 23 3.3 7.8
2014-Nov-26 22:12 323 18 gusting 24 3.3 7.8
2014-Nov-26 22:06 322 13 gusting 24 3.3 7.8
2014-Nov-26 22:00 322 19 gusting 26 3.3 7.8
2014-Nov-26 21:54 316 20 gusting 28 3.3 7.8
2014-Nov-26 21:48 309 23 gusting 26 3.9 7.8
2014-Nov-26 21:36 324 13 gusting 19 3.9 7.8
2014-Nov-26 21:30 326 16 gusting 22 3.9 7.8
2014-Nov-26 21:24 325 17 gusting 20 3.9 7.8
2014-Nov-26 21:18 320 14 gusting 20 3.9 7.8
2014-Nov-26 21:12 319 16 gusting 19 3.9 7.8
2014-Nov-26 21:06 319 14 gusting 19 3.9 7.8
2014-Nov-26 21:00 319 16 gusting 20 3.9 7.8
2014-Nov-26 20:54 316 15 gusting 19 3.9 7.8
2014-Nov-26 20:48 315 14 gusting 17 3.9 7.8
2014-Nov-26 20:36 323 12 gusting 14 3.3 7.8
2014-Nov-26 20:30 330 11 gusting 14 3.9 7.8
2014-Nov-26 20:24 339 12 gusting 17 3.3 7.8
2014-Nov-26 20:18 345 10 gusting 15 3.9 7.8
2014-Nov-26 20:12 358 11 gusting 17 3.9 7.8
2014-Nov-26 20:06 356 10 gusting 20 3.9 7.8
2014-Nov-26 20:00 359 11 gusting 15 3.9 7.8
2014-Nov-26 19:54 002 11 gusting 21 3.9 7.8
2014-Nov-26 19:48 004 13 gusting 19 3.9 7.8
2014-Nov-26 19:36 007 13 gusting 20 3.9 7.8
2014-Nov-26 19:30 003 14 gusting 18 3.9 7.8
2014-Nov-26 19:24 006 13 gusting 18 3.9 7.8
2014-Nov-26 19:18 003 10 gusting 19 3.9 7.8
2014-Nov-26 19:12 353 7 gusting 16 3.9 7.8
2014-Nov-26 19:06 350 12 gusting 18 3.9 7.8
2014-Nov-26 19:00 353 11 gusting 18 3.9 7.8
2014-Nov-26 18:54 352 12 gusting 18 3.9 7.8
2014-Nov-26 18:48 001 13 gusting 19 3.9 7.8
2014-Nov-26 18:36 359 9 gusting 18 4.4 7.8
2014-Nov-26 18:30 002 11 gusting 17 4.4 7.8
2014-Nov-26 18:24 004 11 gusting 16 4.4 7.8
2014-Nov-26 18:18 353 10 gusting 13 4.4 7.8
2014-Nov-26 18:12 359 11 gusting 20 4.4 7.8
2014-Nov-26 18:00 004 13 gusting 20 4.4 7.8
2014-Nov-26 17:54 005 13 gusting 19 4.4 7.8
2014-Nov-26 17:48 002 11 gusting 20 4.4 7.8
2014-Nov-26 17:36 002 11 gusting 17 5.0 8.3
2014-Nov-26 17:30 356 10 gusting 20 5.0 8.3
2014-Nov-26 17:24 344 13 gusting 16 5.0 8.3
2014-Nov-26 17:18 353 13 gusting 20 5.0 8.3
2014-Nov-26 17:12 347 13 gusting 22 5.0 8.3
2014-Nov-26 17:06 006 14 gusting 19 5.0 8.3
2014-Nov-26 17:00 002 13 gusting 19 5.0 8.3
2014-Nov-26 16:54 004 14 gusting 20 5.0 7.8
2014-Nov-26 16:48 351 12 gusting 18 5.6 8.3
2014-Nov-26 16:36 001 11 gusting 19 5.6 8.3
2014-Nov-26 16:30 002 12 gusting 20 5.6 8.3
2014-Nov-26 16:24 006 13 gusting 19 5.6 8.3
2014-Nov-26 16:18 005 13 gusting 21 5.6 8.3
2014-Nov-26 16:12 006 17 gusting 25 5.6 8.3
2014-Nov-26 16:06 010 16 gusting 22 5.6 8.3
2014-Nov-26 16:00 007 14 gusting 21 5.6 8.3
2014-Nov-26 15:54 007 14 gusting 18 5.6 8.3
2014-Nov-26 15:48 008 13 gusting 19 6.1 8.3
2014-Nov-26 15:36 010 13 gusting 20 6.1 8.3
2014-Nov-26 15:30 8.3
2014-Nov-26 15:24 8.3
2014-Nov-26 15:18 005 16 gusting 19 6.1 8.3
2014-Nov-26 15:12 008 13 gusting 21 6.1 8.3
2014-Nov-26 15:06 014 13 gusting 19 6.1 8.3
2014-Nov-26 15:00 023 13 gusting 19 6.1 8.3
2014-Nov-26 14:54 022 11 gusting 18 6.1 8.3
2014-Nov-26 14:48 022 13 gusting 23 6.1 8.3
2014-Nov-26 14:36 028 17 gusting 22 6.1 8.3
2014-Nov-26 14:30 012 13 gusting 18 6.1 8.3
2014-Nov-26 14:24 022 13 gusting 19 6.1 8.3
2014-Nov-26 14:18 016 11 gusting 19 6.7 8.3
2014-Nov-26 14:12 006 11 gusting 17 6.7 8.3
2014-Nov-26 14:06 009 13 gusting 18 6.7 8.3
2014-Nov-26 14:00 013 10 gusting 15 6.7 8.3
2014-Nov-26 13:54 015 10 gusting 17 6.7 8.3
2014-Nov-26 13:48 015 9 gusting 15 6.7 8.3
2014-Nov-26 13:36 024 11 gusting 16 6.7 8.3
2014-Nov-26 13:30 023 9 gusting 12 6.7 8.3
2014-Nov-26 13:24 016 6 gusting 20 6.7 8.3
2014-Nov-26 13:18 029 15 gusting 18 6.7 8.3
2014-Nov-26 13:12 033 14 gusting 17 6.7 8.3
2014-Nov-26 13:06 036 12 gusting 17 6.7 8.3
2014-Nov-26 13:00 031 13 gusting 18 6.7 8.3
2014-Nov-26 12:54 031 16 gusting 21 6.7 8.3
2014-Nov-26 12:48 030 17 gusting 18 6.7 8.3
2014-Nov-26 12:42 027 13 gusting 18 6.7 8.3
2014-Nov-26 12:36 026 12 gusting 16 6.7 8.3
2014-Nov-26 12:30 020 10 gusting 13 6.7 8.3
2014-Nov-26 12:24 019 8 gusting 13 6.7 8.3
2014-Nov-26 12:18 015 8 gusting 15 6.7 8.3
2014-Nov-26 12:12 029 13 gusting 18 6.7 8.3
2014-Nov-26 12:06 032 16 gusting 19 6.7 8.3
2014-Nov-26 12:00 036 14 gusting 19 6.7 8.9
2014-Nov-26 11:54 037 13 gusting 19 6.7 8.9
2014-Nov-26 11:48 035 17 gusting 19 6.7 8.9
2014-Nov-26 11:42 032 17 gusting 19 6.7 8.9
2014-Nov-26 11:36 036 13 gusting 19 6.7 8.9
2014-Nov-26 11:30 037 15 gusting 19 6.7 8.9
2014-Nov-26 11:24 033 15 gusting 19 6.7 8.9
2014-Nov-26 11:18 035 14 gusting 17 6.7 8.9
2014-Nov-26 11:12 037 13 gusting 17 6.7 8.9
2014-Nov-26 11:06 039 12 gusting 18 6.7 8.9
2014-Nov-26 11:00 042 13 gusting 17 6.7 8.9
2014-Nov-26 10:54 043 11 gusting 17 6.7 8.9
2014-Nov-26 10:48 045 11 gusting 19 6.7 8.9
2014-Nov-26 10:36 049 13 gusting 19 6.7 8.9
2014-Nov-26 10:30 8.9
2014-Nov-26 10:24 8.9
2014-Nov-26 10:18 048 13 gusting 19 6.7 8.9
2014-Nov-26 10:12 044 13 gusting 16 6.7 8.9
2014-Nov-26 10:06 044 12 gusting 15 6.7 8.9
2014-Nov-26 10:00 047 12 gusting 15 6.7 8.9
2014-Nov-26 09:54 047 9 gusting 15 6.7 8.9
2014-Nov-26 09:48 050 10 gusting 17 6.7 8.9
2014-Nov-26 09:36 048 12 gusting 17 6.7 8.9
2014-Nov-26 09:30 050 12 gusting 17 7.2 9.4
2014-Nov-26 09:24 049 12 gusting 17 7.2 9.4
2014-Nov-26 09:18 048 13 gusting 14 7.2 9.4
2014-Nov-26 09:12 050 11 gusting 17 7.2 9.4
2014-Nov-26 09:06 049 11 gusting 14 7.2 9.4
2014-Nov-26 09:00 043 9 gusting 12 7.8 9.4
2014-Nov-26 08:54 042 10 gusting 13 7.8 9.4
2014-Nov-26 08:48 038 8 gusting 12 7.8 9.4
2014-Nov-26 08:42 042 7 gusting 13 7.8 9.4
2014-Nov-26 08:36 039 9 gusting 13 7.8 9.4
2014-Nov-26 08:30 036 10 gusting 12 7.8 9.4
2014-Nov-26 08:24 035 9 gusting 11 7.8 9.4
2014-Nov-26 08:18 031 8 gusting 11 8.3 9.4
2014-Nov-26 08:06 032 9 gusting 11 8.3 9.4
2014-Nov-26 08:00 031 9 gusting 12 8.3 9.4
2014-Nov-26 07:54 035 10 gusting 13 8.3 9.4
2014-Nov-26 07:48 031 12 gusting 13 8.3 9.4
2014-Nov-26 07:36 025 7 gusting 11 8.3 9.4
2014-Nov-26 07:30 017 6 gusting 9 8.3 9.4
2014-Nov-26 07:24 018 5 gusting 8 8.3 9.4
2014-Nov-26 07:18 020 5 gusting 8 8.3 9.4
2014-Nov-26 07:12 010 5 gusting 7 8.3 9.4
2014-Nov-26 07:06 014 4 gusting 6 8.3 9.4
2014-Nov-26 07:00 018 5 gusting 7 8.3 9.4
2014-Nov-26 06:54 015 4 gusting 6 8.3 9.4
2014-Nov-26 06:48 007 5 gusting 6 8.3 9.4
2014-Nov-26 06:36 022 4 gusting 5 8.3 9.4
2014-Nov-26 06:30 007 3 gusting 6 8.3 9.4
2014-Nov-26 06:24 013 3 gusting 6 8.3 9.4
2014-Nov-26 06:18 006 4 gusting 6 8.3 9.4
2014-Nov-26 06:12 012 3 gusting 5 8.310.0
2014-Nov-26 06:06 006 3 gusting 6 8.310.0
2014-Nov-26 06:00 029 5 gusting 6 8.9 9.4
2014-Nov-26 05:54 041 4 gusting 7 8.9 9.4
2014-Nov-26 05:48 026 5 gusting 6 8.9 9.4
2014-Nov-26 05:42 039 5 gusting 6 8.3 9.4
2014-Nov-26 05:36 356 2 gusting 5 8.3 9.4
2014-Nov-26 05:30 062 5 gusting 5 8.3 9.4
2014-Nov-26 05:24 059 2 gusting 5 8.9 9.4
2014-Nov-26 05:18 085 4 gusting 5 8.3 9.4
2014-Nov-26 05:12 102 3 gusting 6 8.9 9.4
2014-Nov-26 05:06 077 5 gusting 5 8.9 9.4
2014-Nov-26 05:00 080 3 gusting 5 8.3 9.4
2014-Nov-26 04:54 074 3 gusting 5 8.3 9.4
2014-Nov-26 04:48 086 5 gusting 5 8.3 9.4
2014-Nov-26 04:36 058 4 gusting 4 8.9 9.4
2014-Nov-26 04:30 048 3 gusting 5 8.9 9.4
2014-Nov-26 04:24 082 4 gusting 4 8.3 9.4
2014-Nov-26 04:18 071 3 gusting 5 8.3 9.4
2014-Nov-26 04:12 065 4 gusting 4 8.3 9.4
2014-Nov-26 04:06 070 4 gusting 4 8.3 9.4
2014-Nov-26 04:00 071 4 gusting 4 8.3 9.4
2014-Nov-26 03:54 074 3 gusting 4 8.9 9.4
2014-Nov-26 03:48 067 3 gusting 4 8.9 9.4
2014-Nov-26 03:36 051 3 gusting 4 8.910.0
2014-Nov-26 03:30 076 3 gusting 4 8.910.0
2014-Nov-26 03:24 069 3 gusting 3 8.910.0
2014-Nov-26 03:18 050 2 gusting 3 8.910.0
2014-Nov-26 03:12 045 2 gusting 2 8.910.0
2014-Nov-26 03:06 046 2 gusting 3 8.910.0
2014-Nov-26 03:00 043 3 gusting 4 9.410.0
2014-Nov-26 02:54 029 4 gusting 4 10.010.0
2014-Nov-26 02:48 020 2 gusting 4 10.010.0
2014-Nov-26 02:36 008 3 gusting 3 9.410.0
2014-Nov-26 02:30 019 2 gusting 5 10.0 9.4
2014-Nov-26 02:24 010 3 gusting 4 10.0 9.4
2014-Nov-26 02:18 011 2 gusting 3 10.0 9.4
2014-Nov-26 02:12 004 2 gusting 3 10.0 9.4
2014-Nov-26 02:06 021 2 gusting 4 10.0 9.4
2014-Nov-26 02:00 026 3 gusting 4 10.6 9.4
2014-Nov-26 01:54 008 3 gusting 4 10.0 9.4
2014-Nov-26 01:48 004 3 gusting 4 10.0 9.4
2014-Nov-26 01:36 009 2 gusting 2 10.0 9.4
2014-Nov-26 01:30 009 2 gusting 3 10.0 9.4
2014-Nov-26 01:24 004 2 gusting 4 10.0 9.4
2014-Nov-26 01:18 027 3 gusting 4 10.0 9.4
2014-Nov-26 01:12 033 3 gusting 3 10.0 9.4
2014-Nov-26 01:06 036 3 gusting 4 10.0 9.4
2014-Nov-26 01:00 010 2 gusting 4 10.0 9.4
2014-Nov-26 00:54 005 2 gusting 3 10.0 9.4
2014-Nov-26 00:48 007 2 gusting 3 10.0 9.4
2014-Nov-26 00:42 001 2 gusting 4 10.0 9.4
2014-Nov-26 00:36 004 3 gusting 3 9.4 9.4
2014-Nov-26 00:30 006 3 gusting 3 9.4 9.4
2014-Nov-26 00:24 004 1 gusting 1 10.0 9.4
2014-Nov-26 00:18 026 9.4 9.4
2014-Nov-26 00:12 156 0 gusting 1 9.4 9.4
2014-Nov-26 00:06 156 9.4 9.4
2014-Nov-25 23:48 154 0 gusting 1 9.4 9.4
2014-Nov-25 23:36 124 1 gusting 1 9.4 9.4
2014-Nov-25 23:30 113 0 gusting 1 9.4 9.4
2014-Nov-25 23:24 088 1 gusting 3 9.4 9.4
2014-Nov-25 23:18 090 3 gusting 4 9.4 9.4
2014-Nov-25 23:12 090 3 gusting 4 9.4 9.4
2014-Nov-25 23:06 082 3 gusting 4 9.4 9.4
2014-Nov-25 23:00 078 3 gusting 3 10.0 9.4
2014-Nov-25 22:54 065 2 gusting 3 10.0 9.4
2014-Nov-25 22:48 067 3 gusting 3 10.0 9.4
2014-Nov-25 22:36 064 2 gusting 3 10.0 9.4
2014-Nov-25 22:30 040 2 gusting 3 10.6 9.4
2014-Nov-25 22:24 031 2 gusting 4 10.6 9.4
2014-Nov-25 22:18 042 3 gusting 3 10.0 9.4
2014-Nov-25 22:06 079 3 gusting 3 9.4 9.4
2014-Nov-25 22:00 078 2 gusting 3 10.0 9.4
2014-Nov-25 21:54 048 1 gusting 2 10.6 9.4
2014-Nov-25 21:48 022 1 gusting 3 10.0 9.4
2014-Nov-25 21:36 055 3 gusting 4 9.4 9.4
2014-Nov-25 21:30 040 3 gusting 4 10.0 9.4
2014-Nov-25 21:24 034 3 gusting 4 10.0 9.4
2014-Nov-25 21:18 042 2 gusting 4 10.0 9.4
2014-Nov-25 21:12 032 3 gusting 4 10.6 9.4
2014-Nov-25 21:06 030 3 gusting 4 10.6 9.4
2014-Nov-25 21:00 024 2 gusting 3 10.6 9.4
2014-Nov-25 20:54 026 1 gusting 3 10.6 9.4
2014-Nov-25 20:48 018 2 gusting 2 10.6 9.4
2014-Nov-25 20:42 010 1 gusting 3 10.6 9.4
2014-Nov-25 20:36 008 2 gusting 5 10.6 9.4
2014-Nov-25 20:30 019 1 gusting 3 10.6 9.4
2014-Nov-25 20:24 007 2 gusting 5 10.6 9.4
2014-Nov-25 20:18 025 3 gusting 6 10.6 9.4
2014-Nov-25 20:12 015 3 gusting 6 10.6 9.4
2014-Nov-25 20:06 016 3 gusting 5 10.6 9.4
2014-Nov-25 20:00 008 4 gusting 5 10.6 9.4
2014-Nov-25 19:54 025 3 gusting 5 11.110.0
2014-Nov-25 19:48 027 3 gusting 6 11.710.0
2014-Nov-25 19:36 10.0
2014-Nov-25 19:30 005 5 gusting 7 11.710.0
2014-Nov-25 19:24 004 5 gusting 8 11.710.0
2014-Nov-25 19:18 009 6 gusting 7 11.710.0
2014-Nov-25 19:06 003 6 gusting 9 12.210.0
2014-Nov-25 19:00 003 6 gusting 9 12.210.0
2014-Nov-25 18:54 004 5 gusting 7 12.210.0
2014-Nov-25 18:48 001 4 gusting 7 12.210.0
2014-Nov-25 18:36 004 6 gusting 8 12.210.6
2014-Nov-25 18:30 001 5 gusting 7 12.210.6
2014-Nov-25 18:24 357 6 gusting 8 12.210.6
2014-Nov-25 18:18 355 6 gusting 11 12.810.6
2014-Nov-25 18:12 350 5 gusting 10 12.810.6
2014-Nov-25 18:06 348 6 gusting 10 12.810.6
2014-Nov-25 18:00 348 6 gusting 10 12.810.6
2014-Nov-25 17:54 347 6 gusting 8 12.810.6
2014-Nov-25 17:48 354 6 gusting 9 12.810.6
2014-Nov-25 17:42 355 6 gusting 10 12.810.6
2014-Nov-25 17:36 357 6 gusting 8 12.810.6
2014-Nov-25 17:30 12.810.6
2014-Nov-25 17:24 349 6 gusting 10 12.810.6
2014-Nov-25 17:18 001 7 gusting 9 12.810.6
2014-Nov-25 17:12 354 6 gusting 9 12.810.6
2014-Nov-25 17:06 352 6 gusting 11 12.810.6
2014-Nov-25 17:00 355 6 gusting 10 12.810.6
2014-Nov-25 16:54 350 6 gusting 8 12.810.6
2014-Nov-25 16:48 350 7 gusting 11 12.810.0
2014-Nov-25 16:36 339 10 gusting 13 12.810.0
2014-Nov-25 16:30 337 10 gusting 13 12.810.0
2014-Nov-25 16:24 343 8 gusting 13 12.810.0
2014-Nov-25 16:18 343 9 gusting 11 12.810.0
2014-Nov-25 16:12 349 8 gusting 13 13.310.0
2014-Nov-25 16:06 348 7 gusting 14 13.310.0
2014-Nov-25 16:00 348 10 gusting 13 13.310.0
2014-Nov-25 15:54 345 9 gusting 12 13.310.0
2014-Nov-25 15:48 349 6 gusting 11 12.810.0
2014-Nov-25 15:36 001 7 gusting 9 12.810.6
2014-Nov-25 15:30 10.6
2014-Nov-25 15:24 10.6
2014-Nov-25 15:18 352 6 gusting 10 13.310.6
2014-Nov-25 15:12 354 6 gusting 9 13.310.6
2014-Nov-25 15:06 350 6 gusting 12 13.311.1
2014-Nov-25 15:00 350 6 gusting 10 13.311.1
2014-Nov-25 14:54 347 7 gusting 10 13.911.1
2014-Nov-25 14:48 347 7 gusting 9 13.311.1
2014-Nov-25 14:36 352 7 gusting 10 13.911.1
2014-Nov-25 14:30 343 8 gusting 12 13.911.1
2014-Nov-25 14:24 344 10 gusting 13 13.911.1
2014-Nov-25 14:18 353 6 gusting 12 13.311.1
2014-Nov-25 14:12 354 7 gusting 12 13.911.1
2014-Nov-25 14:06 349 7 gusting 12 13.911.1
2014-Nov-25 13:54 004 6 gusting 12 13.911.1
2014-Nov-25 13:48 352 6 gusting 12 13.911.1
2014-Nov-25 13:42 349 8 gusting 10 13.910.6
2014-Nov-25 13:36 346 6 gusting 12 13.910.6
2014-Nov-25 13:30 339 6 gusting 10 14.410.6
2014-Nov-25 13:24 344 8 gusting 9 14.410.6
2014-Nov-25 13:18 341 6 gusting 8 14.410.6
2014-Nov-25 13:12 342 6 gusting 7 13.910.6
2014-Nov-25 13:06 341 4 gusting 6 13.910.6
2014-Nov-25 13:00 332 5 gusting 6 13.310.0
2014-Nov-25 12:54 342 6 gusting 6 12.810.0
2014-Nov-25 12:48 325 5 gusting 10 12.210.0
2014-Nov-25 12:36 252 5 gusting 6 11.7 9.4
2014-Nov-25 12:30 209 6 gusting 6 11.7 9.4
2014-Nov-25 12:24 217 4 gusting 5 11.7 9.4
2014-Nov-25 12:18 230 3 gusting 5 11.7 9.4
2014-Nov-25 12:12 220 5 gusting 5 12.2 9.4
2014-Nov-25 12:06 216 4 gusting 4 11.7 9.4
2014-Nov-25 12:00 228 4 gusting 4 11.7 9.4
2014-Nov-25 11:54 228 4 gusting 5 12.2 9.4
2014-Nov-25 11:48 219 4 gusting 6 12.2 9.4
2014-Nov-25 11:36 198 7 gusting 7 12.8 9.4
2014-Nov-25 11:30 199 6 gusting 7 12.2 9.4
2014-Nov-25 11:24 207 6 gusting 7 12.8 9.4
2014-Nov-25 11:18 215 7 gusting 9 12.8 9.4
2014-Nov-25 11:12 214 9 gusting 9 12.8 9.4
2014-Nov-25 11:06 209 8 gusting 11 12.8 9.4
2014-Nov-25 11:00 206 10 gusting 11 12.8 9.4
2014-Nov-25 10:54 207 9 gusting 11 12.8 9.4
2014-Nov-25 10:48 205 10 gusting 12 12.8 9.4
2014-Nov-25 10:18 204 11 gusting 13 13.3 9.4
2014-Nov-25 10:12 206 13 gusting 13 13.9 9.4
2014-Nov-25 10:06 199 12 gusting 13 13.3 9.4
2014-Nov-25 10:00 191 13 gusting 13 13.3 9.4
2014-Nov-25 09:54 190 11 gusting 13 13.3 9.4
2014-Nov-25 09:48 197 10 gusting 11 13.9 9.4
2014-Nov-25 09:36 200 13 gusting 14 13.9 9.4
2014-Nov-25 09:30 201 13 gusting 13 13.9 9.4
2014-Nov-25 09:24 202 13 gusting 14 13.9 9.4
2014-Nov-25 09:18 206 13 gusting 15 13.9 9.4
2014-Nov-25 09:12 203 13 gusting 15 13.9 9.4
2014-Nov-25 09:06 203 13 gusting 15 13.9 9.4
2014-Nov-25 09:00 200 14 gusting 15 13.9 9.4
2014-Nov-25 08:54 199 13 gusting 13 13.9 9.4
2014-Nov-25 08:48 201 11 gusting 12 13.3 9.4
2014-Nov-25 08:36 194 11 gusting 13 13.3 9.4
2014-Nov-25 08:30 195 11 gusting 13 13.9 9.4
2014-Nov-25 08:24 191 12 gusting 14 13.310.0
2014-Nov-25 08:18 193 13 gusting 15 13.310.6
2014-Nov-25 08:12 193 13 gusting 17 13.910.0
2014-Nov-25 08:06 197 14 gusting 15 13.310.0
2014-Nov-25 08:00 192 13 gusting 14 13.310.0